Location: Easter Hill Village
(37.9235°N, 122.3444°W)
Time: 07:18:24
(UTC+00:00)

Daily predictions for brighter satellites

Satellite Brightness Start Highest point End
(mag) Time Altitude Azimuth Time Altitude Azimuth Time Altitude Azimuth
Cosmos 1626 Rocket 4.0 12:00:28 10° SSW 12:04:42 45° W 12:08:57 10° N
ADEOS II 4.1 12:02:30 10° NNW 12:05:04 14° WNW 12:07:36 10° W
PAYLOAD A 4.1 12:02:37 10° N 12:07:52 75° WNW 12:13:13 10° SSW
NOSS 2-2 (E) 3.4 12:08:13 10° SW 12:11:35 45° NW 12:14:37 10° NNE
Cosmos 1782 2.7 12:07:59 10° NNW 12:11:48 61° W 12:15:33 10° S
DMSP B5D2-2 4.1 12:16:18 10° S 12:21:31 65° WSW 12:26:46 10° NNW
Cosmos 2346 Rocket 4.4 12:16:46 10° NNW 12:22:47 72° W 12:28:47 10° S
